Home > Weather > Lucerne > Past weeks

Flag for Switzerland Past Weather in Lucerne, Lucerne, Switzerland — Yesterday and Last 2 Weeks

Now
60 °F

Cool.


Feels Like: 60 °F
Forecast: 54 / 69 °F
Wind: 3 mph from South

Location: Giswil

Current Time: May 29, 2016 at 5:57:18 AM

Latest Report: May 29, 2016 at 5:00 AM


Visibility: N/A

Pressure: 29.75 "Hg

Humidity: 94%

Dew Point: 58 °F

Location of LucerneLocation

Past Weather in Lucerne — Graph

°F

Lucerne Temperature Yesterday

Maximum temperature yesterday: 69 °F (at 3:00 PM)
Minimum temperature yesterday: 56 °F (at 6:00 AM)
Average temperature yesterday: 62 °F

High & Low Weather Summary for the Past Weeks

 TemperatureHumidityPressure
High82 °F (May 22, 3:00 PM)100% (May 20, 5:00 AM)30.24 "Hg (May 20, 5:00 AM)
Low37 °F (May 20, 6:00 AM)22% (May 22, 5:00 PM)29.68 "Hg (May 22, 5:00 PM)
Average55 °F78%30.01 "Hg
* Reported May 14 4:00 AM — May 29 4:00 AM, Lucerne, Weather by CustomWeather, © 2016

Note: Actual official high and low records may vary slightly from our data, if they occured in-between our weather recording intervals... More about our weather records

Advertising

Lucerne Weather History for the Previous 24 Hours

Scroll right to see more
 ConditionsComfort  
Time TempWeatherWind HumidityBarometerVisibility
4:00 AM
Sun, May 29
59 °FCool.2 mph96%29.75 "HgN/A
3:00 AM59 °FCool.2 mph96%29.79 "HgN/A
2:00 AM59 °FCool.1 mph95%29.79 "HgN/A
1:00 AM58 °FCool.1 mph97%29.80 "HgN/A
12:00 AM59 °FCool.1 mph97%29.78 "HgN/A
11:00 PM
Sat, May 28
59 °FCool.2 mph96%29.77 "HgN/A
10:00 PM62 °FCool.2 mph90%29.77 "HgN/A
9:00 PM62 °FCool.2 mph95%29.78 "HgN/A
8:00 PM67 °FMild.1 mph84%29.77 "HgN/A
3:00 PM69 °FMild.3 mph68%29.85 "HgN/A
2:00 PM66 °FMild.1 mph75%29.89 "HgN/A
1:00 PM65 °FMild.2 mph80%29.93 "HgN/A
12:00 PM64 °FMild.2 mph86%29.94 "HgN/A
11:00 AM65 °FMild.1 mph81%29.93 "HgN/A
10:00 AM62 °FCool.2 mph88%29.96 "HgN/A
9:00 AM59 °FCool.2 mph98%30.00 "HgN/A
8:00 AM59 °FCool.1 mph96%29.97 "HgN/A
7:00 AM58 °FCool.1 mph99%29.99 "HgN/A
6:00 AM56 °FCool.1 mph99%30.00 "HgN/A
5:00 AM58 °FCool.1 mph96%30.01 "HgN/A
Weather by CustomWeather, © 2016

See weather overviewHow to use our weather pages